[[{"header":{"parameterUnit":"m.s-1","parameterCategory":1,"la1":30.2991,"la2":30.254,"lo1":-89.0895,"lo2":-89.0444,"dy":0.0017,"dx":0.0017,"nx":28,"ny":28,"refTime":"2026-02-27T03:00:00:Z","depth":0,"parameterNumber":2,"parameterNumberName":"U-component_of_WINDS"},"data":[0,0,0,0,0,0,0,0,0,0,0,0,0,0,0,0,0,0,0,0,0,0,0,0,0,0,0,0,0,0,0,0,0,0,0,0,0,0,0,0,0,0,0,0,0,0,0,0,0,0,0,0,0,0,0,0,0,0,-1.8454,-1.8455,0,-1.8492,-1.8493,-1.8493,-1.8475,-1.8474,-1.8473,-1.8472,-1.8513,-1.8515,-1.8516,0,0,0,0,0,0,0,0,0,0,0,0,0,-1.8369,-1.8371,-1.8454,-1.8455,-1.8455,-1.8492,-1.8493,-1.8493,-1.8475,-1.8474,-1.8473,-1.8472,-1.8512,-1.8514,-1.8517,0,0,0,0,0,0,0,0,0,0,0,0,0,-1.8407,-1.8371,-1.8454,-1.845,-1.8451,-1.8492,-1.8493,-1.8493,-1.8475,-1.8474,-1.8472,-1.8471,-1.8511,-1.8514,-1.8517,-1.8565,0,0,-1.8526,-1.8527,0,0,0,0,0,0,0,0,-1.8404,-1.841,-1.8451,-1.8451,-1.8451,-1.8477,-1.8477,-1.8517,-1.8476,-1.8466,-1.8472,-1.847,-1.8502,-1.8506,-1.8516,-1.8567,-1.8568,-1.8526,-1.8528,-1.8529,-1.853,0,0,0,0,0,0,0,-1.8402,-1.8408,-1.8469,-1.8451,-1.8451,-1.8448,-1.8452,-1.8485,-1.8492,-1.8467,-1.8465,-1.847,-1.8502,-1.8513,-1.8517,-1.8569,-1.8526,-1.8529,-1.8531,-1.8532,-1.8662,-1.8664,0,0,0,0,0,0,-1.8399,-1.8406,-1.8468,-1.847,-1.8424,-1.8451,-1.8455,-1.847,-1.8491,-1.8493,-1.8471,-1.8469,-1.8509,-1.8513,-1.8518,-1.8576,-1.8529,-1.8532,-1.8534,-1.8661,-1.8663,-1.8665,0,0,0,0,0,0,-1.8397,-1.8405,-1.8466,-1.8438,-1.8445,-1.8454,-1.8471,-1.8472,-1.8483,-1.8495,-1.8496,-1.8481,-1.8508,-1.8514,-1.8554,-1.8577,-1.8534,-1.8536,-1.8659,-1.8661,-1.8664,-1.8691,0,0,0,0,0,0,-1.8395,-1.8404,-1.8421,-1.8438,-1.8447,-1.85,-1.8473,-1.8474,-1.8488,-1.8485,-1.8505,-1.8506,-1.8507,-1.8549,-1.8556,-1.858,-1.8539,-1.8657,-1.866,-1.8663,-1.8688,-1.8695,-1.87,0,0,0,0,0,-1.8392,-1.8428,-1.8422,-1.843,-1.8469,-1.8501,-1.8506,-1.8506,-1.849,-1.8508,-1.8516,-1.8506,-1.8574,-1.8553,-1.8561,-1.8587,-1.8655,-1.8659,-1.8663,-1.8686,-1.8693,-1.87,0,0,0,0,0,0,-1.8413,-1.843,-1.8424,-1.8466,-1.8483,-1.8498,-1.852,-1.8514,-1.8535,-1.8532,-1.8532,-1.8536,-1.8577,-1.8586,-1.8563,-1.8635,-1.8612,-1.8618,-1.8627,-1.8634,-1.864,-1.8636,-1.8541,0,0,0,0,0,-1.8423,-1.8447,-1.8461,-1.8497,-1.8505,-1.8512,-1.8526,-1.8525,-1.8542,-1.8549,-1.8559,-1.8577,-1.8603,-1.8619,-1.8643,-1.8691,-1.8695,-1.8712,-1.8718,-1.8723,-1.8727,-1.8754,-1.8762,-1.8677,-1.8677,-1.8677,0,0,-1.8443,-1.8455,-1.847,-1.8502,-1.8514,-1.854,-1.8518,-1.8546,-1.8566,-1.8553,-1.8591,-1.86,-1.862,-1.8664,-1.8683,-1.8672,-1.8752,-1.8727,-1.8731,-1.8733,-1.8759,-1.8767,-1.8774,-1.8679,-1.8679,-1.8679,0,0,-1.8493,-1.8504,-1.8536,-1.8549,-1.8568,-1.8573,-1.8581,-1.8598,-1.8603,-1.8641,-1.8633,-1.8657,-1.8701,-1.8716,-1.8729,-1.8788,-1.8779,-1.8796,-1.8825,-1.8851,-1.8858,-1.8864,-1.8885,-1.8893,-1.88,-1.88,-1.88,0,-1.8515,-1.8553,-1.8553,-1.8582,-1.8597,-1.8587,-1.862,-1.8633,-1.866,-1.8671,-1.8658,-1.8714,-1.8726,-1.8774,-1.8788,-1.88,-1.8809,-1.8792,-1.8857,-1.8863,-1.8868,-1.8889,-1.8896,-1.8802,-1.8802,-1.8802,-1.8802,0,-1.858,-1.8607,-1.8631,-1.8656,-1.8674,-1.8705,-1.871,-1.8729,-1.8727,-1.8733,-1.8773,-1.8788,-1.8816,-1.8827,-1.8825,-1.8876,-1.8868,-1.8856,-1.8833,-1.8878,-1.8897,-1.8905,-1.8805,-1.8804,-1.8804,-1.8803,0,0,-1.8642,-1.8669,-1.8677,-1.8689,-1.8711,-1.8733,-1.8765,-1.8791,-1.8807,-1.8827,-1.8854,-1.8892,-1.8882,-1.8897,-1.8898,-1.8921,-1.8967,-1.8906,-1.8907,-1.8917,-1.9024,-1.9032,-1.9041,-1.8963,-1.8964,-1.8965,-1.9022,0,-1.8693,-1.8747,-1.8749,-1.8799,-1.8825,-1.8817,-1.8845,-1.8862,-1.887,-1.8894,-1.8903,-1.893,-1.8914,-1.8924,-1.8946,-1.8956,-1.8988,-1.8953,-1.8988,-1.8989,-1.8982,-1.905,-1.9059,-1.9111,-1.903,-1.9031,-1.9032,0,-1.8759,-1.8781,-1.8833,-1.8853,-1.8864,-1.8888,-1.8914,-1.8937,-1.8957,-1.8961,-1.8979,-1.8977,-1.9011,-1.8988,-1.9036,-1.9011,-1.9027,-1.9034,-1.9036,-1.9039,-1.9012,-1.9054,-1.9128,-1.9136,-1.9043,-1.9042,-1.9042,0,-1.8799,-1.8841,-1.8878,-1.8889,-1.8913,-1.8931,-1.8942,-1.8961,-1.8977,-1.9,-1.9011,-1.9038,-1.9053,-1.9075,-1.9081,-1.9063,-1.9129,-1.9106,-1.9133,-1.9133,-1.9146,-1.9145,-1.9223,-1.9158,-1.9157,-1.9157,-1.9157,0,-1.8855,-1.8887,-1.8896,-1.8919,-1.8956,-1.8959,-1.8996,-1.9006,-1.9023,-1.9049,-1.9045,-1.9069,-1.9075,-1.9102,-1.9107,-1.9146,-1.9153,-1.9158,-1.9158,-1.9157,-1.9157,-1.9166,-1.9162,-1.9159,-1.9159,-1.9159,-1.9158,0,-1.8904,-1.8912,-1.8952,-1.8972,-1.8978,-1.9004,-1.9022,-1.9044,-1.9052,-1.9085,-1.9093,-1.9106,-1.9136,-1.9145,-1.9182,-1.9185,-1.9231,-1.9229,-1.9224,-1.9224,-1.9251,-1.9248,-1.9336,-1.9349,-1.9276,-1.9277,-1.9277,0,-1.8939,-1.8964,-1.8987,-1.9003,-1.9015,-1.9042,-1.9059,-1.9064,-1.9082,-1.9109,-1.9129,-1.9159,-1.9183,-1.9233,-1.9246,-1.9275,-1.9273,-1.9303,-1.9277,-1.9276,-1.9273,-1.9271,-1.9274,-1.9307,-1.9308,-1.9308,-1.9309,0,-1.9,-1.9003,-1.9027,-1.9053,-1.9074,-1.9095,-1.9115,-1.913,-1.9138,-1.9159,-1.919,-1.9209,-1.9247,-1.9278,-1.9307,-1.932,-1.9316,-1.9317,-1.9325,-1.9323,-1.9319,-1.9322,-1.9236,-1.9314,-1.9314,-1.9313,-1.9313,-1.9313,-1.9043,-1.9065,-1.9085,-1.9112,-1.9128,-1.9148,-1.917,-1.9182,-1.9208,-1.9238,-1.9241,-1.9275,-1.9297,-1.9336,-1.9351,-1.9379,-1.937,-1.9382,-1.9384,-1.9387,-1.9389,-1.9316,-1.9384,-1.9384,-1.9384,-1.9384,-1.9384,0,-1.9103,-1.9116,-1.9142,-1.917,-1.9193,-1.9187,-1.921,-1.9229,-1.9259,-1.928,-1.9304,-1.9341,-1.9371,-1.9388,-1.9419,-1.9438,-1.9437,-1.9446,-1.9444,-1.9447,-1.9395,-1.9385,-1.9446,-1.9446,-1.9446,-1.9446,-1.9446,-1.9446,-1.9137,-1.9174,-1.918,-1.9226,-1.9239,-1.9272,-1.9285,-1.9304,-1.9321,-1.9362,-1.9387,-1.9397,-1.9417,-1.9449,-1.9478,-1.9482,-1.9493,-1.9503,-1.9506,-1.9457,-1.9451,-1.9444,-1.9435,-1.9505,-1.9506,-1.9556,-1.9556,-1.9557]},{"header":{"parameterUnit":"m.s-1","parameterCategory":1,"la1":30.2991,"la2":30.254,"lo1":-89.0895,"lo2":-89.0444,"dy":0.0017,"dx":0.0017,"nx":28,"ny":28,"refTime":"2026-02-27T03:00:00:Z","depth":0,"parameterNumber":3,"parameterNumberName":"V-component_of_WINDS"},"data":[0,0,0,0,0,0,0,0,0,0,0,0,0,0,0,0,0,0,0,0,0,0,0,0,0,0,0,0,0,0,0,0,0,0,0,0,0,0,0,0,0,0,0,0,0,0,0,0,0,0,0,0,0,0,0,0,0,0,1.7415,1.7415,0,1.742,1.742,1.742,1.7485,1.7486,1.7488,1.7489,1.7489,1.7488,1.7486,0,0,0,0,0,0,0,0,0,0,0,0,0,1.7458,1.7457,1.7415,1.7415,1.7415,1.742,1.742,1.742,1.7484,1.7486,1.7488,1.749,1.749,1.7488,1.7486,0,0,0,0,0,0,0,0,0,0,0,0,0,1.7448,1.7456,1.7415,1.7448,1.7451,1.742,1.742,1.742,1.7484,1.7486,1.7489,1.7491,1.7491,1.7488,1.7486,1.7422,0,0,1.7479,1.7478,0,0,0,0,0,0,0,0,1.7449,1.7447,1.7443,1.7446,1.7449,1.7454,1.7435,1.742,1.7483,1.7471,1.7489,1.7492,1.7475,1.7474,1.747,1.7422,1.7422,1.7479,1.7477,1.7476,1.7476,0,0,0,0,0,0,0,1.7449,1.7447,1.7417,1.7443,1.7446,1.7461,1.7463,1.7432,1.7459,1.7472,1.7477,1.7477,1.7477,1.7472,1.747,1.7422,1.7479,1.7477,1.7475,1.7474,1.732,1.7318,0,0,0,0,0,0,1.7446,1.7447,1.7417,1.7417,1.7455,1.7458,1.746,1.745,1.746,1.7464,1.7475,1.748,1.7475,1.7473,1.747,1.7394,1.7476,1.7474,1.7473,1.7323,1.732,1.7317,0,0,0,0,0,0,1.7447,1.7443,1.7416,1.7433,1.7431,1.7455,1.7443,1.7449,1.7443,1.7462,1.7466,1.7464,1.7476,1.7474,1.7434,1.7395,1.7473,1.7471,1.7326,1.7322,1.7318,1.7243,0,0,0,0,0,0,1.7448,1.7443,1.7419,1.7432,1.743,1.738,1.7441,1.7447,1.7439,1.7446,1.7453,1.7457,1.7478,1.7437,1.7431,1.7394,1.7469,1.733,1.7324,1.7319,1.7248,1.7236,1.7226,0,0,0,0,0,1.7449,1.7397,1.7418,1.7414,1.7402,1.7378,1.7377,1.7404,1.7436,1.7412,1.7424,1.7456,1.7401,1.7432,1.7426,1.7387,1.7332,1.7326,1.732,1.7253,1.7239,1.7226,0,0,0,0,0,0,1.7378,1.74,1.7423,1.7374,1.7374,1.7389,1.736,1.7388,1.7377,1.7383,1.7417,1.7418,1.7372,1.7376,1.741,1.7325,1.7372,1.7365,1.7324,1.731,1.7299,1.7297,1.7467,0,0,0,0,0,1.7357,1.7337,1.7357,1.7312,1.7311,1.7335,1.7326,1.7347,1.7348,1.7347,1.7357,1.7354,1.7337,1.7324,1.7309,1.7251,1.7252,1.7221,1.721,1.72,1.7192,1.716,1.7146,1.7297,1.7297,1.7297,0,0,1.7312,1.7322,1.7307,1.7298,1.73,1.7277,1.7335,1.7308,1.7291,1.7343,1.7305,1.7312,1.7312,1.7262,1.724,1.7264,1.7152,1.7193,1.7185,1.7182,1.7152,1.7138,1.7125,1.7293,1.7293,1.7294,0,0,1.7219,1.7226,1.7188,1.719,1.7193,1.721,1.7201,1.7212,1.7218,1.7182,1.722,1.7199,1.7169,1.7166,1.7161,1.7068,1.7096,1.7062,1.7002,1.697,1.6958,1.6947,1.6911,1.6898,1.7055,1.7054,1.7054,0,1.7163,1.7132,1.7165,1.7136,1.713,1.7178,1.7139,1.7138,1.7135,1.7129,1.7157,1.7118,1.7122,1.7071,1.7048,1.7044,1.7032,1.706,1.6957,1.6947,1.6938,1.6904,1.689,1.705,1.705,1.7051,1.7051,0,1.7061,1.7039,1.7008,1.7005,1.6996,1.6962,1.6988,1.6975,1.6997,1.701,1.6971,1.6978,1.6964,1.6954,1.6975,1.6905,1.692,1.6952,1.6999,1.6918,1.6887,1.6874,1.7044,1.7045,1.7047,1.7048,0,0,1.6922,1.6939,1.6926,1.6925,1.6932,1.6915,1.6883,1.6871,1.6857,1.6854,1.6826,1.6799,1.6829,1.6823,1.6844,1.6817,1.6739,1.6852,1.6852,1.6828,1.666,1.6633,1.6618,1.6759,1.6757,1.6755,1.6659,0,1.683,1.6777,1.6805,1.6747,1.6726,1.6771,1.6743,1.6743,1.6755,1.6737,1.675,1.6729,1.6772,1.6768,1.6743,1.6754,1.6705,1.6762,1.6731,1.6729,1.6726,1.6602,1.6574,1.6483,1.6647,1.6645,1.6644,0,1.6715,1.6708,1.6648,1.6659,1.6651,1.6625,1.6615,1.6599,1.66,1.661,1.6603,1.6632,1.6599,1.6648,1.6602,1.664,1.6629,1.6633,1.663,1.6626,1.6679,1.6591,1.6455,1.644,1.6625,1.6627,1.6628,0,1.6616,1.6591,1.6552,1.655,1.6562,1.6542,1.6546,1.655,1.654,1.6532,1.6526,1.6513,1.6505,1.6494,1.6517,1.6552,1.6467,1.6519,1.6473,1.6472,1.645,1.6451,1.6307,1.6448,1.6449,1.6449,1.6449,0,1.6508,1.6469,1.6507,1.6482,1.6439,1.6473,1.6429,1.6438,1.6441,1.6417,1.6457,1.6433,1.6467,1.6446,1.6465,1.6422,1.6419,1.6425,1.643,1.642,1.6418,1.6411,1.6417,1.6445,1.6446,1.6447,1.6447,0,1.6389,1.6413,1.6373,1.6388,1.6391,1.6358,1.637,1.6347,1.6362,1.6332,1.6327,1.6349,1.6327,1.6351,1.633,1.6342,1.6285,1.63,1.6284,1.6287,1.6239,1.6242,1.6083,1.6062,1.6219,1.6218,1.6217,0,1.6317,1.6288,1.6301,1.6288,1.629,1.627,1.626,1.6292,1.6281,1.628,1.6256,1.6238,1.6225,1.6187,1.6201,1.6185,1.6198,1.6144,1.6196,1.6186,1.6194,1.6194,1.619,1.6132,1.613,1.6129,1.6127,0,1.6187,1.62,1.6186,1.6175,1.6163,1.6156,1.6152,1.614,1.6173,1.6157,1.6136,1.6126,1.6105,1.6086,1.6074,1.6077,1.6106,1.6112,1.6099,1.6087,1.6078,1.608,1.6252,1.6114,1.6115,1.6116,1.6117,1.6118,1.6087,1.6063,1.6068,1.605,1.605,1.6045,1.6024,1.6037,1.602,1.6006,1.6026,1.5999,1.6,1.5988,1.5987,1.5965,1.5988,1.5971,1.5966,1.596,1.5952,1.6084,1.5963,1.5963,1.5964,1.5964,1.5965,0,1.5957,1.5962,1.5946,1.5939,1.5924,1.5956,1.5953,1.5938,1.5914,1.5914,1.59,1.5875,1.5856,1.5869,1.5852,1.5832,1.5845,1.5826,1.5827,1.5826,1.5934,1.5945,1.5816,1.5816,1.5816,1.5816,1.5816,1.5816,1.5887,1.5846,1.586,1.582,1.5826,1.58,1.5795,1.579,1.579,1.576,1.5745,1.5754,1.5758,1.5742,1.5726,1.573,1.5721,1.5696,1.5705,1.5804,1.5819,1.5833,1.5843,1.5695,1.5695,1.5599,1.5598,1.5597]}]]